N281DF KHSP-KLEX

Flight info

Callsign N281DF
Flight time 1h 5m
Altitude 28000
Route OAKLE J24 TUKEY CEGMA
Aircraft B60T/L-SDFGRY/C

Departure

Time 2026-04-27 19:00
Airport Ingalls Field (KHSP)

Arrival

Time 2026-04-27 20:06
Airport Blue Grass Airport (KLEX)
Time Latitude Longitude Altitude Speed Heading
2026-04-27 16:59 37.95316 -79.83466 3770 ft 0 kts 237°
2026-04-27 18:57 37.95311 -79.83471 3780 ft 3 kts 211°
2026-04-27 18:57 37.95288 -79.83468 3772 ft 5 kts 167°
2026-04-27 18:57 37.95252 -79.83485 3772 ft 7 kts 236°
2026-04-27 18:58 37.95212 -79.83567 3775 ft 14 kts 238°
2026-04-27 18:58 37.95179 -79.83637 3781 ft 13 kts 239°
2026-04-27 18:58 37.95111 -79.83745 3783 ft 9 kts 221°
2026-04-27 18:58 37.95052 -79.83802 3786 ft 14 kts 218°
2026-04-27 18:59 37.94985 -79.83896 3789 ft 14 kts 238°
2026-04-27 18:59 37.94921 -79.84026 3792 ft 22 kts 238°
2026-04-27 18:59 37.94826 -79.84162 3794 ft 19 kts 227°
2026-04-27 18:59 37.94760 -79.84203 3797 ft 3 kts 110°
2026-04-27 19:00 37.94788 -79.84135 3796 ft 22 kts 58°
2026-04-27 19:00 37.95005 -79.83683 3787 ft 101 kts 58°
2026-04-27 19:00 37.95452 -79.82779 3993 ft 141 kts 59°
2026-04-27 19:00 37.96086 -79.81665 4551 ft 161 kts 58°
2026-04-27 19:01 37.96725 -79.80439 5076 ft 174 kts 63°
2026-04-27 19:01 37.97362 -79.79076 5542 ft 184 kts 62°
2026-04-27 19:01 37.98001 -79.77655 6079 ft 187 kts 62°
2026-04-27 19:01 37.98617 -79.76206 6608 ft 190 kts 62°
2026-04-27 19:02 37.99384 -79.74856 7094 ft 190 kts 33°
2026-04-27 19:02 38.00609 -79.74358 7605 ft 186 kts
2026-04-27 19:02 38.01912 -79.74280 8125 ft 189 kts
2026-04-27 19:02 38.02801 -79.74246 8478 ft 190 kts
2026-04-27 19:03 38.04106 -79.74204 9000 ft 190 kts
2026-04-27 19:03 38.05431 -79.74168 9536 ft 191 kts
2026-04-27 19:03 38.06736 -79.74326 10077 ft 188 kts 337°
2026-04-27 19:03 38.07446 -79.74945 10403 ft 187 kts 311°
2026-04-27 19:04 38.08199 -79.76920 11081 ft 186 kts 291°
2026-04-27 19:04 38.08588 -79.78479 11594 ft 185 kts 280°
2026-04-27 19:04 38.08704 -79.80105 12110 ft 185 kts 274°
2026-04-27 19:04 38.08785 -79.81740 12633 ft 186 kts 274°
2026-04-27 19:05 38.08886 -79.83391 13172 ft 190 kts 275°
2026-04-27 19:05 38.08992 -79.85078 13722 ft 193 kts 275°
2026-04-27 19:05 38.09096 -79.86775 14251 ft 193 kts 275°
2026-04-27 19:05 38.09203 -79.88476 14744 ft 193 kts 275°
2026-04-27 19:06 38.09307 -79.90178 15242 ft 194 kts 275°
2026-04-27 19:06 38.09411 -79.91863 15738 ft 194 kts 275°
2026-04-27 19:06 38.09516 -79.93576 16254 ft 195 kts 275°
2026-04-27 19:06 38.09622 -79.95306 16780 ft 198 kts 275°
2026-04-27 19:07 38.09728 -79.97054 17318 ft 199 kts 275°
2026-04-27 19:07 38.09835 -79.98808 17862 ft 199 kts 275°
2026-04-27 19:07 38.09941 -80.00565 18419 ft 200 kts 275°
2026-04-27 19:07 38.10049 -80.02334 18896 ft 202 kts 275°
2026-04-27 19:08 38.10156 -80.04111 19310 ft 206 kts 275°
2026-04-27 19:08 38.10266 -80.05934 19737 ft 208 kts 275°
2026-04-27 19:08 38.10377 -80.07771 20170 ft 209 kts 275°
2026-04-27 19:08 38.10487 -80.09618 20610 ft 210 kts 275°
2026-04-27 19:09 38.10598 -80.11468 21048 ft 210 kts 275°
2026-04-27 19:09 38.10708 -80.13320 21497 ft 210 kts 275°
2026-04-27 19:09 38.10818 -80.15172 21950 ft 210 kts 275°
2026-04-27 19:09 38.10928 -80.17022 22404 ft 210 kts 274°
2026-04-27 19:10 38.11037 -80.18873 22871 ft 210 kts 274°
2026-04-27 19:10 38.11146 -80.20713 23346 ft 209 kts 274°
2026-04-27 19:10 38.11254 -80.22556 23813 ft 209 kts 274°
2026-04-27 19:10 38.11326 -80.23777 24022 ft 211 kts 274°
2026-04-27 19:11 38.11471 -80.26253 24471 ft 212 kts 275°
2026-04-27 19:11 38.11580 -80.28125 24815 ft 212 kts 275°
2026-04-27 19:11 38.11688 -80.29985 25159 ft 210 kts 275°
2026-04-27 19:11 38.11795 -80.31823 25490 ft 208 kts 275°
2026-04-27 19:12 38.11900 -80.33648 25842 ft 206 kts 275°
2026-04-27 19:12 38.12006 -80.35471 26123 ft 208 kts 275°
2026-04-27 19:12 38.12224 -80.37293 26365 ft 210 kts 283°
2026-04-27 19:12 38.12543 -80.39112 26613 ft 211 kts 283°
2026-04-27 19:13 38.12848 -80.40946 26864 ft 213 kts 283°
2026-04-27 19:13 38.13157 -80.42793 27101 ft 214 kts 283°
2026-04-27 19:13 38.13471 -80.44651 27335 ft 216 kts 283°
2026-04-27 19:13 38.13784 -80.46514 27546 ft 216 kts 283°
2026-04-27 19:14 38.14096 -80.48361 27760 ft 217 kts 283°
2026-04-27 19:14 38.14414 -80.50255 27898 ft 221 kts 283°
2026-04-27 19:14 38.14738 -80.52183 28035 ft 225 kts 283°
2026-04-27 19:14 38.15066 -80.54138 28167 ft 228 kts 283°
2026-04-27 19:15 38.15401 -80.56136 28184 ft 235 kts 283°
2026-04-27 19:15 38.15745 -80.58189 28186 ft 240 kts 283°
2026-04-27 19:15 38.16094 -80.60281 28186 ft 243 kts 283°
2026-04-27 19:15 38.16449 -80.62401 28172 ft 246 kts 283°
2026-04-27 19:16 38.16806 -80.64546 28172 ft 248 kts 283°
2026-04-27 19:16 38.17044 -80.65975 28168 ft 250 kts 283°
2026-04-27 19:16 38.17523 -80.68849 28174 ft 251 kts 283°
2026-04-27 19:16 38.17885 -80.71031 28171 ft 253 kts 283°
2026-04-27 19:17 38.18249 -80.73221 28170 ft 253 kts 283°
2026-04-27 19:17 38.18612 -80.75409 28166 ft 253 kts 283°
2026-04-27 19:17 38.18976 -80.77606 28155 ft 254 kts 283°
2026-04-27 19:17 38.19228 -80.79828 28154 ft 255 kts 270°
2026-04-27 19:18 38.18960 -80.82067 28160 ft 257 kts 263°
2026-04-27 19:18 38.18649 -80.84305 28156 ft 257 kts 263°
2026-04-27 19:18 38.18349 -80.86549 28160 ft 258 kts 263°
2026-04-27 19:18 38.18049 -80.88800 28156 ft 258 kts 263°
2026-04-27 19:19 38.17749 -80.91022 28140 ft 258 kts 263°
2026-04-27 19:19 38.17445 -80.93272 28143 ft 258 kts 263°
2026-04-27 19:19 38.17141 -80.95521 28143 ft 258 kts 263°
2026-04-27 19:19 38.16836 -80.97772 28139 ft 258 kts 263°
2026-04-27 19:20 38.16532 -81.00017 28142 ft 258 kts 263°
2026-04-27 19:20 38.16226 -81.02269 28145 ft 258 kts 263°
2026-04-27 19:20 38.15920 -81.04520 28145 ft 258 kts 263°
2026-04-27 19:20 38.15614 -81.06768 28136 ft 258 kts 263°
2026-04-27 19:21 38.15306 -81.09018 28134 ft 258 kts 263°
2026-04-27 19:21 38.15000 -81.11267 28133 ft 258 kts 263°
2026-04-27 19:21 38.14693 -81.13513 28135 ft 258 kts 263°
2026-04-27 19:21 38.14385 -81.15757 28133 ft 258 kts 263°
2026-04-27 19:22 38.14076 -81.18004 28142 ft 258 kts 263°
2026-04-27 19:22 38.13769 -81.20246 28138 ft 258 kts 263°
2026-04-27 19:22 38.13460 -81.22490 28128 ft 258 kts 263°
2026-04-27 19:22 38.13151 -81.24734 28122 ft 258 kts 263°
2026-04-27 19:23 38.12841 -81.26980 28131 ft 258 kts 263°
2026-04-27 19:23 38.12534 -81.29199 28127 ft 259 kts 263°
2026-04-27 19:23 38.12218 -81.31483 28125 ft 259 kts 263°
2026-04-27 19:23 38.11910 -81.33703 28120 ft 258 kts 263°
2026-04-27 19:24 38.11598 -81.35948 28116 ft 258 kts 263°
2026-04-27 19:24 38.11286 -81.38197 28115 ft 259 kts 263°
2026-04-27 19:24 38.10972 -81.40451 28115 ft 259 kts 263°
2026-04-27 19:24 38.10657 -81.42707 28117 ft 260 kts 263°
2026-04-27 19:25 38.10342 -81.44964 28114 ft 260 kts 263°
2026-04-27 19:25 38.10026 -81.47220 28113 ft 260 kts 263°
2026-04-27 19:25 38.09710 -81.49487 28114 ft 260 kts 263°
2026-04-27 19:25 38.09393 -81.51745 28107 ft 259 kts 263°
2026-04-27 19:26 38.09076 -81.53999 28102 ft 259 kts 263°
2026-04-27 19:26 38.08764 -81.56219 28104 ft 259 kts 262°
2026-04-27 19:26 38.08447 -81.58465 28109 ft 258 kts 263°
2026-04-27 19:26 38.08131 -81.60712 28109 ft 259 kts 262°
2026-04-27 19:27 38.07812 -81.62969 28114 ft 259 kts 263°
2026-04-27 19:27 38.07494 -81.65217 28112 ft 258 kts 262°
2026-04-27 19:27 38.07177 -81.67457 28103 ft 258 kts 262°
2026-04-27 19:27 38.06858 -81.69703 28097 ft 258 kts 262°
2026-04-27 19:28 38.06540 -81.71947 28102 ft 258 kts 262°
2026-04-27 19:28 38.06220 -81.74192 28102 ft 258 kts 262°
2026-04-27 19:28 38.05900 -81.76433 28102 ft 258 kts 262°
2026-04-27 19:28 38.05584 -81.78650 28103 ft 258 kts 262°
2026-04-27 19:29 38.05264 -81.80894 28095 ft 258 kts 262°
2026-04-27 19:29 38.04943 -81.83138 28089 ft 259 kts 262°
2026-04-27 19:29 38.04621 -81.85379 28091 ft 258 kts 262°
2026-04-27 19:29 38.04299 -81.87624 28095 ft 258 kts 262°
2026-04-27 19:30 38.03977 -81.89864 28089 ft 258 kts 262°
2026-04-27 19:30 38.03656 -81.92102 28092 ft 258 kts 262°
2026-04-27 19:30 38.03332 -81.94349 28086 ft 258 kts 262°
2026-04-27 19:30 38.03013 -81.96560 28081 ft 258 kts 262°
2026-04-27 19:31 38.02689 -81.98801 28082 ft 258 kts 262°
2026-04-27 19:31 38.02365 -82.01040 28076 ft 258 kts 262°
2026-04-27 19:31 38.02040 -82.03283 28083 ft 259 kts 262°
2026-04-27 19:31 38.01714 -82.05527 28083 ft 258 kts 262°
2026-04-27 19:32 38.01389 -82.07764 28088 ft 258 kts 262°
2026-04-27 19:32 38.01064 -82.10001 28088 ft 258 kts 262°
2026-04-27 19:32 38.00737 -82.12245 28077 ft 259 kts 262°
2026-04-27 19:32 38.00409 -82.14491 28075 ft 259 kts 262°
2026-04-27 19:33 38.00080 -82.16741 28076 ft 259 kts 262°
2026-04-27 19:33 37.99863 -82.18229 28076 ft 259 kts 262°
2026-04-27 19:33 37.99426 -82.21205 28076 ft 259 kts 262°
2026-04-27 19:33 37.99098 -82.23448 28069 ft 259 kts 262°
2026-04-27 19:34 37.98768 -82.25693 28077 ft 259 kts 262°
2026-04-27 19:34 37.98437 -82.27941 28074 ft 259 kts 262°
2026-04-27 19:34 37.98106 -82.30188 28081 ft 259 kts 262°
2026-04-27 19:34 37.97775 -82.32428 28082 ft 259 kts 262°
2026-04-27 19:35 37.97445 -82.34670 28076 ft 259 kts 262°
2026-04-27 19:35 37.97112 -82.36913 28076 ft 259 kts 262°
2026-04-27 19:35 37.96780 -82.39155 28073 ft 259 kts 262°
2026-04-27 19:35 37.96449 -82.41394 28062 ft 259 kts 262°
2026-04-27 19:36 37.96115 -82.43637 28065 ft 259 kts 262°
2026-04-27 19:36 37.95782 -82.45877 28068 ft 259 kts 262°
2026-04-27 19:36 37.95448 -82.48120 28066 ft 259 kts 262°
2026-04-27 19:36 37.95118 -82.50328 28067 ft 258 kts 262°
2026-04-27 19:37 37.94785 -82.52564 28071 ft 258 kts 262°
2026-04-27 19:37 37.94451 -82.54795 28071 ft 258 kts 262°
2026-04-27 19:37 37.94115 -82.57033 28063 ft 258 kts 262°
2026-04-27 19:37 37.93780 -82.59272 28071 ft 258 kts 262°
2026-04-27 19:38 37.93444 -82.61510 28075 ft 258 kts 262°
2026-04-27 19:38 37.93107 -82.63746 28070 ft 258 kts 261°
2026-04-27 19:38 37.92772 -82.65980 28076 ft 258 kts 261°
2026-04-27 19:38 37.92434 -82.68219 28078 ft 258 kts 262°
2026-04-27 19:39 37.92097 -82.70443 28076 ft 259 kts 262°
2026-04-27 19:39 37.91760 -82.72683 28076 ft 259 kts 261°
2026-04-27 19:39 37.91421 -82.74922 28076 ft 259 kts 261°
2026-04-27 19:39 37.91081 -82.77159 28075 ft 259 kts 261°
2026-04-27 19:40 37.90746 -82.79367 28067 ft 259 kts 261°
2026-04-27 19:40 37.90405 -82.81609 28069 ft 259 kts 261°
2026-04-27 19:40 37.90100 -82.83854 28063 ft 258 kts 268°
2026-04-27 19:40 37.90318 -82.86087 28062 ft 256 kts 283°
2026-04-27 19:41 37.90712 -82.88288 28067 ft 257 kts 282°
2026-04-27 19:41 37.91100 -82.90519 27921 ft 261 kts 282°
2026-04-27 19:41 37.91489 -82.92785 27644 ft 265 kts 282°
2026-04-27 19:41 37.91886 -82.95082 27370 ft 268 kts 282°
2026-04-27 19:42 37.92286 -82.97400 27097 ft 270 kts 282°
2026-04-27 19:42 37.92688 -82.99727 26827 ft 271 kts 282°
2026-04-27 19:42 37.93087 -83.02043 26561 ft 271 kts 282°
2026-04-27 19:42 37.93488 -83.04380 26295 ft 272 kts 282°
2026-04-27 19:43 37.93890 -83.06721 26032 ft 272 kts 282°
2026-04-27 19:43 37.94293 -83.09063 25770 ft 272 kts 282°
2026-04-27 19:43 37.94692 -83.11390 25521 ft 268 kts 282°
2026-04-27 19:43 37.95080 -83.13661 25376 ft 259 kts 282°
2026-04-27 19:44 37.95456 -83.15863 25151 ft 252 kts 282°
2026-04-27 19:44 37.95822 -83.18005 24907 ft 246 kts 282°
2026-04-27 19:44 37.96179 -83.20101 24668 ft 241 kts 281°
2026-04-27 19:44 37.96531 -83.22169 24432 ft 238 kts 281°
2026-04-27 19:45 37.96876 -83.24198 24131 ft 239 kts 281°
2026-04-27 19:45 37.97226 -83.26258 23817 ft 239 kts 281°
2026-04-27 19:45 37.97578 -83.28329 23433 ft 241 kts 281°
2026-04-27 19:45 37.97931 -83.30412 22982 ft 242 kts 281°
2026-04-27 19:46 37.98285 -83.32504 22532 ft 243 kts 281°
2026-04-27 19:46 37.98639 -83.34594 22094 ft 242 kts 281°
2026-04-27 19:46 37.98990 -83.36676 21666 ft 239 kts 281°
2026-04-27 19:46 37.99336 -83.38723 21237 ft 236 kts 281°
2026-04-27 19:47 37.99676 -83.40741 20815 ft 233 kts 281°
2026-04-27 19:47 38.00014 -83.42744 20398 ft 231 kts 281°
2026-04-27 19:47 38.00343 -83.44706 19992 ft 230 kts 281°
2026-04-27 19:47 38.00676 -83.46683 19589 ft 229 kts 281°
2026-04-27 19:48 38.01008 -83.48661 19192 ft 229 kts 281°
2026-04-27 19:48 38.01339 -83.50637 18808 ft 229 kts 281°
2026-04-27 19:48 38.01671 -83.52615 18421 ft 229 kts 280°
2026-04-27 19:48 38.01999 -83.54586 17988 ft 227 kts 282°
2026-04-27 19:49 38.02326 -83.56537 17543 ft 224 kts 282°
2026-04-27 19:49 38.02649 -83.58467 17108 ft 223 kts 282°
2026-04-27 19:49 38.02969 -83.60392 16679 ft 222 kts 282°
2026-04-27 19:49 38.03289 -83.62311 16254 ft 222 kts 282°
2026-04-27 19:50 38.03500 -83.63582 15975 ft 221 kts 282°
2026-04-27 19:50 38.03817 -83.65484 15560 ft 218 kts 282°
2026-04-27 19:50 38.04121 -83.67320 15140 ft 208 kts 282°
2026-04-27 19:50 38.04417 -83.69096 14731 ft 204 kts 282°
2026-04-27 19:51 38.04706 -83.70845 14326 ft 201 kts 282°
2026-04-27 19:51 38.04994 -83.72578 13940 ft 200 kts 282°
2026-04-27 19:51 38.05278 -83.74299 13561 ft 199 kts 282°
2026-04-27 19:51 38.05562 -83.76019 13163 ft 199 kts 281°
2026-04-27 19:52 38.05847 -83.77740 12785 ft 200 kts 281°
2026-04-27 19:52 38.06129 -83.79448 12413 ft 201 kts 281°
2026-04-27 19:52 38.06418 -83.81203 12061 ft 200 kts 280°
2026-04-27 19:52 38.06699 -83.82908 11747 ft 200 kts 280°
2026-04-27 19:53 38.07271 -83.86386 11114 ft 202 kts 279°
2026-04-27 19:53 38.07556 -83.88128 10809 ft 201 kts 278°
2026-04-27 19:53 38.07841 -83.89861 10570 ft 202 kts 278°
2026-04-27 19:54 38.08130 -83.91625 10341 ft 206 kts 278°
2026-04-27 19:54 38.08421 -83.93412 10110 ft 208 kts 277°
2026-04-27 19:54 38.08717 -83.95218 9872 ft 208 kts 277°
2026-04-27 19:54 38.09012 -83.97020 9618 ft 209 kts 277°
2026-04-27 19:55 38.09308 -83.98835 9362 ft 210 kts 277°
2026-04-27 19:55 38.09605 -84.00658 9095 ft 212 kts 277°
2026-04-27 19:55 38.09905 -84.02497 8819 ft 213 kts 276°
2026-04-27 19:55 38.10201 -84.04324 8552 ft 214 kts 276°
2026-04-27 19:56 38.10504 -84.06181 8279 ft 215 kts 276°
2026-04-27 19:56 38.10806 -84.08046 8012 ft 216 kts 276°
2026-04-27 19:56 38.11109 -84.09921 7739 ft 217 kts 276°
2026-04-27 19:56 38.11419 -84.11806 7472 ft 218 kts 275°
2026-04-27 19:57 38.11722 -84.13692 7208 ft 219 kts 275°
2026-04-27 19:57 38.12027 -84.15571 6942 ft 213 kts 275°
2026-04-27 19:57 38.12323 -84.17393 6672 ft 209 kts 274°
2026-04-27 19:57 38.12611 -84.19196 6402 ft 208 kts 274°
2026-04-27 19:58 38.12901 -84.20999 6122 ft 207 kts 274°
2026-04-27 19:58 38.13186 -84.22764 5850 ft 206 kts 274°
2026-04-27 19:58 38.13473 -84.24549 5649 ft 207 kts 274°
2026-04-27 19:58 38.13761 -84.26351 5436 ft 209 kts 274°
2026-04-27 19:59 38.14052 -84.28163 5221 ft 210 kts 275°
2026-04-27 19:59 38.14347 -84.29990 5015 ft 211 kts 274°
2026-04-27 19:59 38.14639 -84.31803 4816 ft 207 kts 274°
2026-04-27 19:59 38.14922 -84.33577 4626 ft 201 kts 274°
2026-04-27 20:00 38.15197 -84.35308 4450 ft 199 kts 274°
2026-04-27 20:00 38.15473 -84.37029 4254 ft 198 kts 274°
2026-04-27 20:00 38.15745 -84.38747 4094 ft 198 kts 275°
2026-04-27 20:00 38.16016 -84.40442 3992 ft 197 kts 275°
2026-04-27 20:01 38.16286 -84.42125 3988 ft 193 kts 275°
2026-04-27 20:01 38.16549 -84.43781 3980 ft 189 kts 274°
2026-04-27 20:01 38.16547 -84.45390 3983 ft 178 kts 246°
2026-04-27 20:01 38.15956 -84.46695 3943 ft 162 kts 221°
2026-04-27 20:02 38.15199 -84.47546 3772 ft 136 kts 217°
2026-04-27 20:02 38.14506 -84.48327 3600 ft 132 kts 216°
2026-04-27 20:02 38.13821 -84.49096 3430 ft 129 kts 216°
2026-04-27 20:02 38.13160 -84.49840 3266 ft 128 kts 217°
2026-04-27 20:03 38.12492 -84.50588 3110 ft 129 kts 216°
2026-04-27 20:03 38.11805 -84.51361 2931 ft 133 kts 217°
2026-04-27 20:03 38.11114 -84.52139 2758 ft 133 kts 217°
2026-04-27 20:03 38.10419 -84.52918 2589 ft 130 kts 217°
2026-04-27 20:04 38.09745 -84.53681 2420 ft 129 kts 216°
2026-04-27 20:04 38.09076 -84.54436 2256 ft 129 kts 214°
2026-04-27 20:04 38.08397 -84.55192 2084 ft 129 kts 216°
2026-04-27 20:04 38.07749 -84.55921 1914 ft 122 kts 216°
2026-04-27 20:05 38.07099 -84.56650 1754 ft 129 kts 216°
2026-04-27 20:05 38.06440 -84.57394 1611 ft 122 kts 217°
2026-04-27 20:05 38.05831 -84.58079 1456 ft 117 kts 217°
2026-04-27 20:05 38.05198 -84.58783 1358 ft 121 kts 220°
2026-04-27 20:06 38.04584 -84.59474 1189 ft 111 kts 219°
2026-04-27 20:06 38.04043 -84.60081 1061 ft 95 kts 221°
2026-04-27 20:06 38.03653 -84.60519 1052 ft 45 kts 221°
2026-04-27 20:06 38.03474 -84.60720 1051 ft 35 kts 221°
2026-04-27 20:07 38.03369 -84.60885 1050 ft 14 kts 297°
2026-04-27 20:07 38.03425 -84.60919 1050 ft 15 kts 41°
2026-04-27 20:07 38.03530 -84.60804 1050 ft 17 kts 41°
2026-04-27 20:07 38.03613 -84.60710 1050 ft 13 kts 41°
2026-04-27 20:08 38.03686 -84.60628 1050 ft 15 kts 41°
2026-04-27 20:08 38.03776 -84.60526 1050 ft 18 kts 41°
2026-04-27 20:08 38.03845 -84.60485 1050 ft 9 kts 316°
2026-04-27 20:08 38.03917 -84.60548 1050 ft 14 kts 345°
2026-04-27 20:09 38.03964 -84.60628 1049 ft 12 kts 262°
2026-04-27 20:09 38.03959 -84.60683 1050 ft 9 kts 263°
2026-04-27 20:09 38.03944 -84.60824 1050 ft 22 kts 262°
2026-04-27 20:09 38.03930 -84.61002 1049 ft 15 kts 262°
2026-04-27 20:10 38.03920 -84.61104 1049 ft 10 kts 258°
2026-04-27 20:10 38.03878 -84.61123 1050 ft 8 kts 204°
2026-04-27 20:10 38.03849 -84.61166 1050 ft 9 kts 241°
2026-04-27 20:10 38.03831 -84.61243 1050 ft 9 kts 259°
2026-04-27 20:11 38.03834 -84.61284 1050 ft 0 kts 347°
2026-04-27 20:11 38.03835 -84.61284 1050 ft 0 kts 353°